Torna al catalogo

FENGYUN 1C DEB

AttivoPO
NORAD 36200·DEBRIS·🇨🇳 China

Lanciato May 10, 1999 da Taiyuan Satellite Launch Center

Loading…

Prossimi Passaggi (prossime 24 ore)

TLE

AggiornatoSource: Space-Track

Epoca: Sep 14, 2026, 13:59 UTC

1 36200U 99025DTZ 26257.58286220  .00014858  00000-0  24947-2 0  9995
2 36200  99.3841  14.8553 0029475 249.3952 110.4087 14.69507305773989

Traccia FENGYUN 1C DEB in tempo reale con AllMySat

Download on the App Store